Time,TemperatureF,DewpointF,PressureIn,WindDirection,WindDirectionDegrees,WindSpeedMPH,WindSpeedGustMPH,Humidity,HourlyPrecipIn,Conditions,Clouds,dailyrainin,SoftwareType,DateUTC
2013-04-05 00:00:00,58.7,56.7,30.06,WSW,248,0.0,1.0,93,0.00,,---,0.00,VWS V14.01,2013-04-05 07:00:00,
2013-04-05 00:09:00,58.9,57.0,30.06,WSW,256,0.0,1.0,93,0.00,,,0.00,weatherlink.com 1.10,2013-04-05 07:09:00,
2013-04-05 00:15:00,58.9,56.9,30.06,WSW,248,0.0,2.0,93,0.00,,---,0.00,VWS V14.01,2013-04-05 07:15:00,
2013-04-05 00:24:00,59.2,57.0,30.06,SW,236,2.0,4.0,93,0.00,,,0.00,weatherlink.com 1.10,2013-04-05 07:24:00,
2013-04-05 00:30:00,59.3,57.0,30.06,SW,225,1.0,4.0,92,0.00,,---,0.00,VWS V14.01,2013-04-05 07:30:00,
2013-04-05 00:39:00,59.4,57.0,30.05,SW,232,1.0,4.0,92,0.00,,,0.00,weatherlink.com 1.10,2013-04-05 07:39:00,
2013-04-05 00:45:00,59.4,56.8,30.06,SSW,202,1.0,5.0,91,0.00,,---,0.00,VWS V14.01,2013-04-05 07:45:00,
2013-04-05 00:54:00,59.4,57.0,30.06,SSW,208,1.0,4.0,92,0.00,,,0.00,weatherlink.com 1.10,2013-04-05 07:54:00,
2013-04-05 01:00:00,59.4,57.1,30.06,SSW,202,1.0,4.0,92,0.00,,---,0.00,VWS V14.01,2013-04-05 08:00:00,
2013-04-05 01:09:00,59.3,57.0,30.05,SSW,198,0.0,3.0,92,0.00,,,0.00,weatherlink.com 1.10,2013-04-05 08:09:00,
2013-04-05 01:15:00,59.3,57.0,30.05,SSW,202,1.0,4.0,92,0.00,,---,0.00,VWS V14.01,2013-04-05 08:15:00,
2013-04-05 01:24:00,59.3,57.0,30.05,SSW,192,1.0,4.0,92,0.00,,,0.00,weatherlink.com 1.10,2013-04-05 08:24:00,
2013-04-05 01:30:00,59.3,57.0,30.05,SSW,202,1.0,4.0,92,0.00,,---,0.00,VWS V14.01,2013-04-05 08:30:00,
2013-04-05 01:39:00,59.2,57.0,30.05,SSW,208,1.0,3.0,92,0.00,,,0.00,weatherlink.com 1.10,2013-04-05 08:39:00,
2013-04-05 01:45:00,59.1,56.8,30.05,SSW,202,1.0,3.0,92,0.00,,---,0.00,VWS V14.01,2013-04-05 08:45:00,
2013-04-05 01:54:00,59.1,57.0,30.06,SSW,207,0.0,3.0,92,0.00,,,0.00,weatherlink.com 1.10,2013-04-05 08:54:00,
2013-04-05 02:00:00,59.1,56.8,30.06,SSW,202,1.0,4.0,92,0.00,,---,0.00,VWS V14.01,2013-04-05 09:00:00,
2013-04-05 02:09:00,59.3,57.0,30.06,WSW,254,3.0,4.0,91,0.00,,,0.00,weatherlink.com 1.10,2013-04-05 09:09:00,
2013-04-05 02:15:00,59.3,56.4,30.06,WSW,248,2.0,7.0,90,0.00,,---,0.00,VWS V14.01,2013-04-05 09:15:00,
2013-04-05 02:24:00,59.5,56.0,30.05,West,265,5.0,6.0,89,0.00,,,0.00,weatherlink.com 1.10,2013-04-05 09:24:00,
2013-04-05 02:30:00,59.6,56.4,30.05,West,270,2.0,6.0,89,0.00,,---,0.00,VWS V14.01,2013-04-05 09:30:00,
2013-04-05 02:39:00,59.8,56.0,30.05,West,271,1.0,5.0,88,0.00,,,0.00,weatherlink.com 1.10,2013-04-05 09:39:00,
2013-04-05 02:45:00,59.8,56.2,30.05,West,270,1.0,5.0,88,0.00,,---,0.00,VWS V14.01,2013-04-05 09:45:00,
2013-04-05 02:54:00,59.8,57.0,30.05,SSW,201,1.0,4.0,89,0.00,,,0.00,weatherlink.com 1.10,2013-04-05 09:54:00,
2013-04-05 03:00:00,59.8,56.6,30.04,WSW,248,1.0,4.0,89,0.00,,---,0.00,VWS V14.01,2013-04-05 10:00:00,
2013-04-05 03:09:00,59.7,57.0,30.05,SSW,196,2.0,5.0,90,0.00,,,0.00,weatherlink.com 1.10,2013-04-05 10:09:00,
2013-04-05 03:15:00,59.6,56.7,30.05,SSW,202,1.0,5.0,90,0.00,,---,0.00,VWS V14.01,2013-04-05 10:15:00,
2013-04-05 03:24:00,59.5,57.0,30.04,SSW,209,3.0,6.0,91,0.00,,,0.00,weatherlink.com 1.10,2013-04-05 10:24:00,
2013-04-05 03:30:00,59.4,56.8,30.04,SSW,202,2.0,6.0,91,0.00,,---,0.00,VWS V14.01,2013-04-05 10:30:00,
2013-04-05 03:39:00,59.3,57.0,30.04,SSW,192,0.0,4.0,91,0.00,,,0.00,weatherlink.com 1.10,2013-04-05 10:39:00,
2013-04-05 03:45:00,59.2,56.6,30.04,SSW,202,1.0,4.0,91,0.00,,---,0.00,VWS V14.01,2013-04-05 10:45:00,
2013-04-05 03:54:00,59.1,57.0,30.04,SW,215,3.0,4.0,92,0.00,,,0.00,weatherlink.com 1.10,2013-04-05 10:54:00,
2013-04-05 04:00:00,59.1,56.8,30.04,SW,225,1.0,5.0,92,0.00,,---,0.00,VWS V14.01,2013-04-05 11:00:00,
2013-04-05 04:09:00,59.1,57.0,30.04,SSW,196,0.0,3.0,92,0.00,,,0.00,weatherlink.com 1.10,2013-04-05 11:09:00,
2013-04-05 04:15:00,59.1,56.8,30.04,SSW,202,1.0,4.0,92,0.00,,---,0.00,VWS V14.01,2013-04-05 11:15:00,
2013-04-05 04:24:00,59.0,57.0,30.04,WSW,242,1.0,5.0,92,0.00,,,0.00,weatherlink.com 1.10,2013-04-05 11:24:00,
2013-04-05 04:30:00,58.9,56.6,30.04,SSW,202,1.0,6.0,92,0.00,,---,0.00,VWS V14.01,2013-04-05 11:30:00,
2013-04-05 04:39:00,58.6,57.0,30.04,SSW,200,0.0,4.0,93,0.00,,,0.00,weatherlink.com 1.10,2013-04-05 11:39:00,
2013-04-05 04:45:00,58.5,56.5,30.04,WSW,248,1.0,6.0,93,0.00,,---,0.00,VWS V14.01,2013-04-05 11:45:00,
2013-04-05 04:54:00,58.4,56.0,30.04,WSW,250,2.0,4.0,93,0.00,,,0.00,weatherlink.com 1.10,2013-04-05 11:54:00,
2013-04-05 05:00:00,58.4,56.4,30.04,WSW,248,1.0,4.0,93,0.00,,---,0.00,VWS V14.01,2013-04-05 12:00:00,
2013-04-05 05:09:00,58.4,56.0,30.04,SW,216,1.0,4.0,93,0.00,,,0.00,weatherlink.com 1.10,2013-04-05 12:09:00,
2013-04-05 05:15:00,58.4,56.4,30.04,WSW,248,1.0,4.0,93,0.00,,---,0.00,VWS V14.01,2013-04-05 12:15:00,
2013-04-05 05:24:00,58.4,56.0,30.04,SW,217,0.0,3.0,93,0.00,,,0.00,weatherlink.com 1.10,2013-04-05 12:24:00,
2013-04-05 05:30:00,58.4,56.7,30.04,SW,225,1.0,4.0,94,0.00,,---,0.00,VWS V14.01,2013-04-05 12:30:00,
2013-04-05 05:39:00,58.3,57.0,30.04,SW,225,0.0,2.0,94,0.00,,,0.00,weatherlink.com 1.10,2013-04-05 12:39:00,
2013-04-05 05:45:00,58.3,56.6,30.04,SW,225,0.0,3.0,94,0.00,,---,0.00,VWS V14.01,2013-04-05 12:45:00,
2013-04-05 05:54:00,58.2,57.0,30.04,SW,225,1.0,2.0,94,0.00,,,0.00,weatherlink.com 1.10,2013-04-05 12:54:00,
2013-04-05 06:00:00,58.2,56.5,30.04,SW,225,1.0,2.0,94,0.00,,---,0.00,VWS V14.01,2013-04-05 13:00:00,
2013-04-05 06:09:00,58.1,56.0,30.04,SW,225,0.0,3.0,94,0.00,,,0.00,weatherlink.com 1.10,2013-04-05 13:09:00,
2013-04-05 06:15:00,58.1,56.4,30.04,SW,225,1.0,3.0,94,0.00,,---,0.00,VWS V14.01,2013-04-05 13:15:00,
2013-04-05 06:24:00,58.0,56.0,30.04,SW,222,0.0,2.0,94,0.00,,,0.00,weatherlink.com 1.10,2013-04-05 13:24:00,
2013-04-05 06:30:00,58.0,56.3,30.05,SW,225,1.0,4.0,94,0.00,,---,0.00,VWS V14.01,2013-04-05 13:30:00,
2013-04-05 06:39:00,58.0,56.0,30.05,SW,219,0.0,3.0,94,0.00,,,0.00,weatherlink.com 1.10,2013-04-05 13:39:00,
2013-04-05 06:45:00,58.1,56.4,30.05,SW,225,1.0,3.0,94,0.00,,---,0.00,VWS V14.01,2013-04-05 13:45:00,
2013-04-05 06:54:00,58.1,56.0,30.05,SSW,206,0.0,3.0,94,0.00,,,0.00,weatherlink.com 1.10,2013-04-05 13:54:00,
2013-04-05 07:00:00,58.1,56.4,30.05,SSW,202,1.0,4.0,94,0.00,,---,0.00,VWS V14.01,2013-04-05 14:00:00,
2013-04-05 07:09:00,58.1,56.0,30.05,SSW,206,0.0,3.0,94,0.00,,,0.00,weatherlink.com 1.10,2013-04-05 14:09:00,
2013-04-05 07:15:00,58.1,56.7,30.05,SSW,202,1.0,3.0,95,0.00,,---,0.00,VWS V14.01,2013-04-05 14:15:00,
2013-04-05 07:25:00,58.2,57.0,30.05,SSW,206,1.0,2.0,95,0.00,,,0.00,weatherlink.com 1.10,2013-04-05 14:25:00,
2013-04-05 07:30:00,58.2,56.8,30.05,SSW,202,0.0,2.0,95,0.00,,---,0.00,VWS V14.01,2013-04-05 14:30:00,
2013-04-05 07:39:00,58.3,57.0,30.06,SSW,206,0.0,2.0,95,0.00,,,0.00,weatherlink.com 1.10,2013-04-05 14:39:00,
2013-04-05 07:45:00,58.3,56.9,30.06,SSW,202,0.0,2.0,95,0.00,,---,0.00,VWS V14.01,2013-04-05 14:45:00,
2013-04-05 07:54:00,58.4,57.0,30.06,SSW,206,0.0,2.0,94,0.00,,,0.00,weatherlink.com 1.10,2013-04-05 14:54:00,
2013-04-05 08:00:00,58.5,56.8,30.06,SSW,202,0.0,2.0,94,0.00,,---,0.00,VWS V14.01,2013-04-05 15:00:00,
2013-04-05 08:09:00,58.7,57.0,30.06,SSW,206,0.0,2.0,94,0.00,,,0.00,weatherlink.com 1.10,2013-04-05 15:09:00,
2013-04-05 08:15:00,58.8,56.8,30.07,SSW,202,0.0,2.0,93,0.00,,---,0.00,VWS V14.01,2013-04-05 15:15:00,
2013-04-05 08:25:00,59.1,57.0,30.06,WSW,238,2.0,3.0,92,0.00,,,0.00,weatherlink.com 1.10,2013-04-05 15:25:00,
2013-04-05 08:30:00,59.3,57.0,30.07,WSW,248,1.0,4.0,92,0.00,,---,0.00,VWS V14.01,2013-04-05 15:30:00,
2013-04-05 08:40:00,59.8,57.0,30.06,SW,230,0.0,4.0,91,0.00,,,0.00,weatherlink.com 1.10,2013-04-05 15:40:00,
2013-04-05 08:45:00,60.0,57.4,30.06,WSW,248,1.0,4.0,91,0.00,,---,0.00,VWS V14.01,2013-04-05 15:45:00,
2013-04-05 08:55:00,60.6,57.0,30.06,SSW,211,1.0,4.0,89,0.00,,,0.00,weatherlink.com 1.10,2013-04-05 15:55:00,
2013-04-05 09:00:00,60.8,57.5,30.06,SSW,202,1.0,4.0,89,0.00,,---,0.00,VWS V14.01,2013-04-05 16:00:00,
2013-04-05 09:10:00,61.2,57.0,30.07,SSW,202,2.0,4.0,87,0.00,,,0.00,weatherlink.com 1.10,2013-04-05 16:10:00,
2013-04-05 09:15:00,61.3,57.4,30.07,SSW,202,1.0,4.0,87,0.00,,---,0.00,VWS V14.01,2013-04-05 16:15:00,
2013-04-05 09:25:00,61.6,57.0,30.07,South,191,0.0,4.0,86,0.00,,,0.00,weatherlink.com 1.10,2013-04-05 16:25:00,
2013-04-05 09:30:00,61.8,57.6,30.07,SSW,202,1.0,4.0,86,0.00,,---,0.00,VWS V14.01,2013-04-05 16:30:00,
2013-04-05 09:40:00,62.4,58.0,30.07,South,186,5.0,6.0,84,0.00,,,0.00,weatherlink.com 1.10,2013-04-05 16:40:00,
2013-04-05 09:45:00,62.6,57.4,30.07,SSW,202,2.0,6.0,83,0.00,,---,0.00,VWS V14.01,2013-04-05 16:45:00,
2013-04-05 09:55:00,63.8,58.0,30.07,South,191,3.0,5.0,81,0.00,,,0.00,weatherlink.com 1.10,2013-04-05 16:55:00,
2013-04-05 10:00:00,64.1,57.8,30.07,SSW,202,1.0,5.0,80,0.00,,---,0.00,VWS V14.01,2013-04-05 17:00:00,
2013-04-05 10:10:00,64.4,58.0,30.07,SE,128,0.0,9.0,80,0.00,,,0.00,weatherlink.com 1.10,2013-04-05 17:10:00,
2013-04-05 10:15:00,64.5,57.8,30.07,South,180,2.0,9.0,79,0.00,,---,0.00,VWS V14.01,2013-04-05 17:15:00,
2013-04-05 10:25:00,64.4,57.0,30.07,South,172,5.0,6.0,78,0.00,,,0.00,weatherlink.com 1.10,2013-04-05 17:25:00,
2013-04-05 10:30:00,64.2,57.6,30.07,South,180,3.0,7.0,79,0.00,,---,0.00,VWS V14.01,2013-04-05 17:30:00,
2013-04-05 10:40:00,64.0,58.0,30.07,SSE,151,1.0,7.0,80,0.00,,,0.00,weatherlink.com 1.10,2013-04-05 17:40:00,
2013-04-05 10:45:00,64.0,57.4,30.08,South,180,3.0,8.0,79,0.00,,---,0.00,VWS V14.01,2013-04-05 17:45:00,
2013-04-05 10:55:00,64.4,58.0,30.07,SSW,198,5.0,7.0,79,0.00,,,0.00,weatherlink.com 1.10,2013-04-05 17:55:00,
2013-04-05 11:00:00,64.5,57.5,30.08,South,180,3.0,8.0,78,0.00,,---,0.00,VWS V14.01,2013-04-05 18:00:00,
2013-04-05 11:10:00,64.3,58.0,30.08,SW,232,4.0,7.0,79,0.00,,,0.00,weatherlink.com 1.10,2013-04-05 18:10:00,
2013-04-05 11:15:00,64.4,57.4,30.08,South,180,3.0,7.0,78,0.00,,---,0.00,VWS V14.01,2013-04-05 18:15:00,
2013-04-05 11:25:00,64.0,57.0,30.08,WSW,238,2.0,8.0,78,0.00,,,0.00,weatherlink.com 1.10,2013-04-05 18:25:00,
2013-04-05 11:30:00,64.1,57.1,30.08,WSW,248,3.0,8.0,78,0.00,,---,0.00,VWS V14.01,2013-04-05 18:30:00,
2013-04-05 11:40:00,64.8,58.0,30.07,West,279,6.0,7.0,78,0.00,,,0.00,weatherlink.com 1.10,2013-04-05 18:40:00,
2013-04-05 11:45:00,64.9,57.5,30.07,SSW,202,4.0,8.0,77,0.00,,---,0.00,VWS V14.01,2013-04-05 18:45:00,
2013-04-05 11:55:00,65.0,58.0,30.07,SW,233,3.0,8.0,77,0.00,,,0.00,weatherlink.com 1.10,2013-04-05 18:55:00,
2013-04-05 12:09:00,64.9,57.5,30.07,SSW,202,4.0,8.0,77,0.00,,---,0.00,VWS V14.01,2013-04-05 19:09:00,
2013-04-05 12:14:00,65.2,57.5,30.06,SSW,208,2.0,7.0,76,0.00,,---,0.00,VWS V14.01,2013-04-05 19:14:00,
2013-04-05 12:19:00,65.4,57.7,30.06,WSW,247,3.0,7.0,76,0.00,,---,0.00,VWS V14.01,2013-04-05 19:19:00,
2013-04-05 12:24:00,65.7,57.9,30.06,SW,216,1.0,7.0,76,0.00,,---,0.00,VWS V14.01,2013-04-05 19:24:00,
2013-04-05 12:29:00,66.2,57.7,30.05,SSW,205,3.0,7.0,74,0.00,,---,0.00,VWS V14.01,2013-04-05 19:29:00,
2013-04-05 12:34:00,66.6,58.1,30.06,SW,215,2.0,7.0,74,0.00,,---,0.00,VWS V14.01,2013-04-05 19:34:00,
2013-04-05 12:39:00,66.8,57.9,30.06,SW,220,1.0,7.0,73,0.00,,---,0.00,VWS V14.01,2013-04-05 19:39:00,
2013-04-05 12:44:00,67.2,58.3,30.06,SSW,201,6.0,7.0,73,0.00,,---,0.00,VWS V14.01,2013-04-05 19:44:00,
2013-04-05 12:55:00,67.3,58.0,30.06,SW,231,4.0,6.0,72,0.00,,---,0.00,VWS V14.01,2013-04-05 19:55:00,
2013-04-05 13:00:00,67.6,57.9,30.06,SSW,202,5.0,12.0,71,0.00,,---,0.00,VWS V14.01,2013-04-05 20:00:00,
2013-04-05 13:14:00,67.9,58.0,30.05,SSW,211,4.0,10.0,70,0.00,,,0.00,weatherlink.com 1.10,2013-04-05 20:14:00,
2013-04-05 13:15:00,67.9,57.4,30.05,SSW,202,5.0,12.0,69,0.00,,---,0.00,VWS V14.01,2013-04-05 20:15:00,
2013-04-05 13:29:00,68.1,58.0,30.05,South,190,7.0,11.0,71,0.00,,,0.00,weatherlink.com 1.10,2013-04-05 20:29:00,
2013-04-05 13:30:00,68.1,58.3,30.04,SSW,202,4.0,11.0,71,0.00,,---,0.00,VWS V14.01,2013-04-05 20:30:00,
2013-04-05 13:44:00,67.9,58.0,30.05,South,186,3.0,10.0,71,0.00,,,0.00,weatherlink.com 1.10,2013-04-05 20:44:00,
2013-04-05 13:45:00,67.9,58.2,30.04,SSW,202,5.0,10.0,71,0.00,,---,0.00,VWS V14.01,2013-04-05 20:45:00,
2013-04-05 14:00:00,67.0,57.7,30.03,SSW,202,5.0,11.0,72,0.00,,---,0.00,VWS V14.01,2013-04-05 21:00:00,
2013-04-05 14:14:00,67.5,58.0,30.03,SW,223,4.0,10.0,71,0.00,,,0.00,weatherlink.com 1.10,2013-04-05 21:14:00,
2013-04-05 14:15:00,67.6,57.9,30.03,SSW,202,4.0,10.0,71,0.00,,---,0.00,VWS V14.01,2013-04-05 21:15:00,
2013-04-05 14:29:00,67.0,58.0,30.02,SSW,203,7.0,11.0,73,0.00,,,0.00,weatherlink.com 1.10,2013-04-05 21:29:00,
2013-04-05 14:30:00,66.9,58.0,30.02,SSW,202,5.0,14.0,73,0.00,,---,0.00,VWS V14.01,2013-04-05 21:30:00,
2013-04-05 14:44:00,67.1,58.0,30.02,SSW,205,1.0,10.0,73,0.00,,,0.00,weatherlink.com 1.10,2013-04-05 21:44:00,
2013-04-05 14:45:00,67.2,58.3,30.02,SSW,202,5.0,11.0,73,0.00,,---,0.00,VWS V14.01,2013-04-05 21:45:00,
2013-04-05 14:59:00,67.4,58.0,30.02,WSW,252,3.0,9.0,73,0.00,,,0.00,weatherlink.com 1.10,2013-04-05 21:59:00,
2013-04-05 15:00:00,67.4,58.5,30.02,SSW,202,4.0,9.0,73,0.00,,---,0.00,VWS V14.01,2013-04-05 22:00:00,
2013-04-05 15:14:00,67.9,59.0,30.02,SSW,198,7.0,12.0,72,0.00,,,0.00,weatherlink.com 1.10,2013-04-05 22:14:00,
2013-04-05 15:15:00,67.8,58.5,30.02,SSW,202,5.0,12.0,72,0.00,,---,0.00,VWS V14.01,2013-04-05 22:15:00,
2013-04-05 15:29:00,67.6,58.0,30.02,SSW,192,6.0,12.0,72,0.00,,,0.00,weatherlink.com 1.10,2013-04-05 22:29:00,
2013-04-05 15:30:00,67.6,58.7,30.02,SSW,202,5.0,12.0,73,0.00,,---,0.00,VWS V14.01,2013-04-05 22:30:00,
2013-04-05 15:44:00,66.3,58.0,30.02,SSW,210,4.0,13.0,75,0.00,,,0.00,weatherlink.com 1.10,2013-04-05 22:44:00,
2013-04-05 15:45:00,66.4,58.2,30.02,SSW,202,5.0,13.0,75,0.00,,---,0.00,VWS V14.01,2013-04-05 22:45:00,
2013-04-05 15:59:00,66.7,58.0,30.02,SW,225,3.0,13.0,74,0.00,,,0.00,weatherlink.com 1.10,2013-04-05 22:59:00,
2013-04-05 16:00:00,66.7,58.2,30.02,SSW,202,5.0,13.0,74,0.00,,---,0.00,VWS V14.01,2013-04-05 23:00:00,
2013-04-05 16:14:00,66.1,58.0,30.02,SSE,167,5.0,11.0,75,0.00,,,0.00,weatherlink.com 1.10,2013-04-05 23:14:00,
2013-04-05 16:15:00,66.1,58.0,30.02,SSW,202,6.0,15.0,75,0.00,,---,0.00,VWS V14.01,2013-04-05 23:15:00,
2013-04-05 16:29:00,65.8,58.0,30.01,South,185,9.0,14.0,75,0.00,,,0.00,weatherlink.com 1.10,2013-04-05 23:29:00,
2013-04-05 16:30:00,65.9,57.8,30.01,SSW,202,6.0,14.0,75,0.00,,---,0.00,VWS V14.01,2013-04-05 23:30:00,
2013-04-05 16:44:00,65.6,58.0,30.01,SSW,198,2.0,9.0,76,0.00,,,0.00,weatherlink.com 1.10,2013-04-05 23:44:00,
2013-04-05 16:45:00,65.6,57.8,30.01,SSW,202,5.0,13.0,76,0.00,,---,0.00,VWS V14.01,2013-04-05 23:45:00,
2013-04-05 17:00:00,65.9,58.0,30.00,South,189,7.0,9.0,75,0.00,,,0.00,weatherlink.com 1.10,2013-04-06 00:00:00,
2013-04-05 17:15:00,65.7,58.0,29.99,SSE,166,5.0,8.0,76,0.00,,,0.00,weatherlink.com 1.10,2013-04-06 00:15:00,
2013-04-05 17:30:00,64.9,58.0,29.99,SSW,198,6.0,10.0,77,0.00,,,0.00,weatherlink.com 1.10,2013-04-06 00:30:00,
2013-04-05 17:45:00,63.5,57.0,29.99,SSE,150,2.0,8.0,80,0.00,,,0.00,weatherlink.com 1.10,2013-04-06 00:45:00,
2013-04-05 18:00:00,62.7,57.0,29.99,SSW,198,4.0,10.0,81,0.00,,,0.00,weatherlink.com 1.10,2013-04-06 01:00:00,
2013-04-05 18:15:00,61.9,57.0,29.99,SSW,204,2.0,8.0,83,0.00,,,0.00,weatherlink.com 1.10,2013-04-06 01:15:00,
2013-04-05 18:30:00,62.5,57.0,29.99,SSW,209,0.0,5.0,82,0.00,,,0.00,weatherlink.com 1.10,2013-04-06 01:30:00,
2013-04-05 18:45:00,61.7,57.0,29.99,SSW,201,2.0,7.0,83,0.00,,,0.00,weatherlink.com 1.10,2013-04-06 01:45:00,
2013-04-05 19:00:00,61.0,56.0,29.99,South,187,4.0,6.0,84,0.00,,,0.00,weatherlink.com 1.10,2013-04-06 02:00:00,
2013-04-05 19:15:00,60.1,56.0,30.00,SW,220,4.0,6.0,86,0.00,,,0.00,weatherlink.com 1.10,2013-04-06 02:15:00,
2013-04-05 19:30:00,59.5,56.0,29.99,SSW,192,0.0,5.0,87,0.00,,,0.00,weatherlink.com 1.10,2013-04-06 02:30:00,
2013-04-05 19:45:00,59.0,56.0,30.00,South,182,1.0,5.0,88,0.00,,,0.00,weatherlink.com 1.10,2013-04-06 02:45:00,
2013-04-05 20:00:00,58.7,56.0,29.99,SSE,155,1.0,4.0,89,0.00,,,0.00,weatherlink.com 1.10,2013-04-06 03:00:00,
2013-04-05 20:15:00,58.6,55.0,30.00,SSE,165,0.0,4.0,89,0.00,,,0.00,weatherlink.com 1.10,2013-04-06 03:15:00,
2013-04-05 20:30:00,58.5,55.0,30.00,SSE,150,0.0,3.0,89,0.00,,,0.00,weatherlink.com 1.10,2013-04-06 03:30:00,
2013-04-05 20:45:00,58.3,56.0,30.01,SSE,163,0.0,4.0,90,0.00,,,0.00,weatherlink.com 1.10,2013-04-06 03:45:00,
2013-04-05 21:00:00,58.4,56.0,30.01,South,179,1.0,5.0,90,0.00,,,0.00,weatherlink.com 1.10,2013-04-06 04:00:00,
2013-04-05 21:15:00,58.2,55.0,30.02,South,180,0.0,1.0,90,0.00,,,0.00,weatherlink.com 1.10,2013-04-06 04:15:00,
2013-04-05 21:30:00,58.1,56.0,30.02,South,180,1.0,3.0,91,0.00,,,0.00,weatherlink.com 1.10,2013-04-06 04:30:00,
2013-04-05 21:45:00,58.0,55.0,30.03,South,180,1.0,3.0,91,0.00,,,0.00,weatherlink.com 1.10,2013-04-06 04:45:00,
2013-04-05 22:00:00,57.9,56.0,30.02,South,169,0.0,4.0,92,0.00,,,0.00,weatherlink.com 1.10,2013-04-06 05:00:00,
2013-04-05 22:15:00,57.8,56.0,30.03,South,170,2.0,3.0,92,0.00,,,0.00,weatherlink.com 1.10,2013-04-06 05:15:00,
2013-04-05 22:30:00,57.8,56.0,30.04,South,182,0.0,2.0,93,0.00,,,0.00,weatherlink.com 1.10,2013-04-06 05:30:00,
2013-04-05 22:45:00,58.0,56.0,30.04,SE,137,1.0,4.0,93,0.00,,,0.00,weatherlink.com 1.10,2013-04-06 05:45:00,
2013-04-05 23:00:00,58.0,56.0,30.03,SSE,156,1.0,3.0,93,0.00,,,0.00,weatherlink.com 1.10,2013-04-06 06:00:00,
2013-04-05 23:15:00,57.9,56.0,30.04,ESE,121,1.0,3.0,92,0.00,,,0.00,weatherlink.com 1.10,2013-04-06 06:15:00,
2013-04-05 23:30:00,57.9,56.0,30.03,SSE,165,0.0,4.0,92,0.00,,,0.00,weatherlink.com 1.10,2013-04-06 06:30:00,
2013-04-05 23:45:00,58.0,56.0,30.03,SE,124,0.0,3.0,92,0.00,,,0.00,weatherlink.com 1.10,2013-04-06 06:45:00,